Location: Audrecelles
(50.8240°N, 1.5923°E)
Time: 02:39:24
(UTC+00:00)

Cosmos 44 - Pass Details

Date: 17 October 2025
Orbit: 576 x 774 km, 65.1° (Epoch: 13 November)

Event Time Altitude Azimuth Distance (km) Brightness Sun altitude
Exits shadow 02:11:01 15° 18° (NNE) 1,838 5.9 -38.1°
Drops below altitude 10° 02:13:18 10° 45° (NE) 2,206 6.6 -37.8°
Sets 02:16:40 0° 67° (ENE) 3,167 7.6 -37.4°
